This demonstration page uses our WeatherBlox Daily Observations layout. Learn more.

Left ArrowRight Arrow

30.21309, -93.2044

Hourly Observations for May 12, 2022

Temp ( °F °C ) Dew Point ( °F °C ) Humidity (%) Winds ( mph kmh ) Pressure ( in mb ) Visibility ( mi km ) Precip ( " mm )
12:15 am 00:15 Clear 70 21.1 66 18.8 87 87 SSE 3 6 30.08 1019 10 16 0.00 0.00
12:35 am 00:35 Clear 70 20.9 66 18.7 87 87 SSE 3 6 30.08 1019 10 16 0.00 0.00
12:55 am 00:55 Clear 70 20.9 66 18.9 88 88 Calm 30.07 1018 10 16 0.00 0.00
1:15 am 01:15 Clear 69 20.8 66 18.9 89 89 Calm 30.07 1018 10 16 0.00 0.00
1:35 am 01:35 Clear 68 20.1 66 18.8 92 92 Calm 30.07 1018 10 16 0.00 0.00
1:55 am 01:55 Clear 69 20.6 66 19 91 91 Calm 30.07 1018 10 16 0.00 0.00
2:15 am 02:15 Clear 68 20.1 66 18.8 92 92 Calm 30.06 1018 10 16 0.00 0.00
2:35 am 02:35 Clear 67 19.7 65 18.4 92 92 Calm 30.06 1018 10 16 0.00 0.00
2:55 am 02:55 Clear 67 19.7 65 18.6 93 93 Calm 30.06 1018 10 16 0.00 0.00
3:15 am 03:15 Clear 68 20.2 66 19 93 93 Calm 30.05 1018 10 16 0.00 0.00
3:35 am 03:35 Clear 69 20.5 66 19 91 91 Calm 30.05 1018 10 16 0.00 0.00
3:55 am 03:55 Clear 69 20.3 65 18.3 88 88 NNW 5 7 30.06 1018 10 16 0.00 0.00
4:15 am 04:15 Clear 69 20.6 65 18.5 88 88 NNW 3 6 30.06 1018 10 16 0.00 0.00
4:35 am 04:35 Clear 68 20.1 66 18.7 92 92 Calm 30.06 1018 10 16 0.00 0.00
4:55 am 04:55 Clear 69 20.3 66 19.1 93 93 Calm 30.06 1018 10 16 0.00 0.00
5:15 am 05:15 Clear 68 20.1 66 18.8 92 92 Calm 30.06 1018 7 11 0.00 0.00
5:35 am 05:35 Mostly Cloudy with Mist and Fog 66 18.9 64 18 95 95 Calm 30.06 1018 1 1 0.00 0.00
6:00 am 06:00 Mostly Clear 66 19 64 18 94 94 Calm 30.07 1018 10 16 0.00 0.00
6:55 am 06:55 Mostly Sunny 66 19 64 18 94 94 Calm 30.09 1019 7 11 0.00 0.00
7:55 am 07:55 Mostly Sunny 73 23 70 21 89 89 Calm 30.09 1019 10 16 0.00 0.00
8:50 am 08:50 Mostly Sunny 77 25 70 21 79 79 VRB 5 7 30.10 1019 10 16 0.00 0.00
9:50 am 09:50 Mostly Sunny 81 27 70 21 70 70 WNW 8 13 30.09 1019 10 16 0.00 0.00
10:55 am 10:55 Mostly Sunny 82 28 68 20 62 62 WNW 5 7 30.08 1019 10 16 0.00 0.00
11:50 am 11:50 Mostly Sunny 84 29 68 20 58 58 Calm 30.08 1019 10 16 0.00 0.00
12:55 pm 12:55 Partly Cloudy 88 31 70 21 55 55 ESE 6 9 30.05 1018 10 16 0.00 0.00
1:45 pm 13:45 Mostly Cloudy 88 31 68 20 52 52 SE 3 6 30.03 1017 10 16 0.00 0.00
2:49 pm 14:49 Mostly Cloudy 88 31 66 19 49 49 ESE 7 11 30.00 1016 10 16 0.00 0.00
3:51 pm 15:51 Mostly Sunny 91 33 66 19 44 44 ESE 3 6 29.97 1015 10 16 0.00 0.00
4:45 pm 16:45 Partly Cloudy 91 33 66 19 44 44 S 6 9 29.96 1015 10 16 0.00 0.00
5:45 pm 17:45 Partly Cloudy 88 31 68 20 52 52 SSW 10 17 29.95 1014 10 16 0.00 0.00
6:46 pm 18:46 Partly Cloudy 86 30 66 19 52 52 SSW 12 19 29.95 1014 10 16 0.00 0.00
7:50 pm 19:50 Mostly Sunny 82 28 68 20 62 62 SSW 12 19 29.95 1014 10 16 0.00 0.00
8:47 pm 20:47 Mostly Clear 81 27 66 19 62 62 SW 9 15 29.96 1015 10 16 0.00 0.00
9:49 pm 21:49 Mostly Clear 79 26 68 20 70 70 WSW 9 15 29.97 1015 10 16 0.00 0.00
10:15 pm 22:15 Clear 78 25.7 68 20 71 71 SW 6 9 29.98 1015 10 16 0.00 0.00
10:35 pm 22:35 Clear 78 25.6 68 20.1 72 72 WSW 8 13 29.98 1015 10 16 0.00 0.00
10:55 pm 22:55 Clear 78 25.6 68 20.1 72 72 WSW 9 15 29.98 1015 10 16 0.00 0.00
11:15 pm 23:15 Clear 78 25.5 68 20.2 73 73 WSW 8 13 29.97 1015 10 16 0.00 0.00
11:35 pm 23:35 Clear 77 25.1 68 20.2 74 74 SW 7 11 29.97 1015 10 16 0.00 0.00
11:55 pm 23:55 Clear 71 21.7 66 19 85 85 SW 3 6 29.97 1015 10 16 0.00 0.00

Powered by AerisWeather